カタログに戻る

STARLINK-34622

運用中通信VLEO
NORAD 66015·PAYLOAD·🇺🇸 United States

打ち上げ Oct 16, 2025 から Cape Canaveral Space Force Station

Loading…

次のパス (今後24時間)

TLE

最新Source: CelesTrak SupGP

元期: Sep 14, 2026, 22:39 UTC

1 66015C 25232L   26257.94423611  .00043102  00000+0  12732-2 0  2577
2 66015  53.1587 301.6224 0001124  84.6818  22.6111 15.34375348    17

AllMySatでSTARLINK-34622をリアルタイム追跡

Download on the App Store